Location: Badger Butte
(44.9311°N, 118.3053°W)
Time: 05:47:15
(UTC+00:00)

Daily predictions for brighter satellites

Satellite Brightness Start Highest point End
(mag) Time Altitude Azimuth Time Altitude Azimuth Time Altitude Azimuth
Cosmos 2184 Rocket 4.4 03:07:48 10° SSW 03:13:56 70° W 03:20:07 10° N
Meteor 2-21 4.5 03:08:45 10° S 03:14:51 72° E 03:21:02 10° NNE
COSMOS 2428 2.8 03:09:34 10° SSW 03:15:19 88° ESE 03:21:04 10° NNE
Cosmos 2333 4.3 03:10:20 10° SSW 03:15:59 87° WNW 03:21:39 10° NNE
Cosmos 1844 3.9 03:11:11 10° NNW 03:16:54 80° WSW 03:22:39 10° SSE
HJ-1C 4.2 03:13:48 10° S 03:17:05 54° W 03:20:24 10° NNW
EO 1 Del DPAF 4.4 03:14:02 10° N 03:17:45 49° WNW 03:21:26 10° SSW
Meteor 1-27 4.5 03:13:12 10° SSE 03:18:41 50° E 03:24:08 10° NNE
Centaur D-1A AC-31 4.1 03:07:06 10° SW 03:19:28 17° S 03:24:30 10° SE
Genesis I 3.3 03:15:44 10° NNW 03:19:50 78° NE 03:23:53 10° SE
Cosmos 2219 Rocket 2.2 03:14:42 10° SSW 03:20:19 70° ESE 03:25:57 10° NNE
Cosmos 220 Rocket 4.0 03:18:18 10° NNW 03:22:39 70° ENE 03:26:55 10° SSE
NOSS 0 Rocket 4.2 03:17:23 10° S 03:23:14 47° ESE 03:29:08 10° NE
Cosmos 2237 Rocket 2.7 03:19:00 10° S 03:24:06 37° ESE 03:29:14 10° NE
Cosmos 1666 Rocket 3.7 03:20:41 10° N 03:25:11 82° W 03:29:38 10° S
NOSS 2-1 (C) 3.9 03:24:24 10° SW 03:27:59 59° NW 03:32:06 10° NNE
ATLAS 5 CENTAUR R/B 4.5 03:25:39 10° NNW 03:28:30 14° NNE 03:31:30 10° NE
NOSS 2-1 (D) 4.0 03:25:25 10° SW 03:28:59 57° NW 03:33:05 10° NNE
Thor Agena Rocket 3.6 03:25:11 10° NNE 03:30:27 71° ESE 03:35:42 10° S
Aureole 2 4.4 03:27:40 10° S 03:30:30 41° ESE 03:33:18 10° NE
Cosmos 1933 Rocket 4.1 03:26:59 10° N 03:31:09 41° ENE 03:35:16 10° SSE
Cosmos 1340 3.5 03:28:02 10° SSW 03:31:46 56° WNW 03:35:31 10° N
Cosmos 1151 Rocket 3.5 03:28:01 10° SSE 03:31:57 38° E 03:35:55 10° NNE
Cosmos 2278 Rocket 2.3 03:26:22 10° NNW 03:32:01 62° ENE 03:37:38 10° SE
Sich 1 3.6 03:28:14 10° NNW 03:32:28 61° W 03:36:40 10° S
Cosmos 962 Rocket 4.5 03:27:52 10° S 03:33:56 69° E 03:40:05 10° NNE
Cosmos 2341 Rocket 4.0 03:29:28 10° S 03:35:46 69° E 03:42:04 10° NNE
ATLAS 2AS CENTAUR R/B 3.1 03:28:14 10° NW 03:36:13 83° SW 03:43:33 10° SSE
USA 186 1.2 03:35:42 10° S 03:37:55 65° W 03:40:14 10° NNW
Spot 2 Rocket 3.6 03:33:26 10° SSE 03:38:26 60° ENE 03:43:28 10° N
Cosmos 2218 Rocket 4.5 03:33:03 10° SSE 03:38:54 41° E 03:44:51 10° NNE
Meteor 2-2 Rocket 4.5 03:33:04 10° SSW 03:38:56 83° W 03:44:58 10° N
NOAA 11 4.4 03:33:54 10° SE 03:39:14 54° ENE 03:44:36 10° N
Resurs 1-3 3.6 03:36:03 10° SSE 03:40:27 81° ENE 03:44:52 10° NNW
CZ-3B R/B 2.0 03:42:56 10° NW 03:44:29 42° NE 03:45:21 20° E
Cosmos 1825 2.6 03:40:58 10° N 03:44:36 44° ENE 03:47:58 12° SSE
Cosmos 2366 rocket 4.4 03:43:00 10° SSE 03:48:49 43° E 03:54:42 10° NNE
Cosmos 1633 Rocket 4.1 03:52:01 10° NNW 03:56:11 46° W 04:00:20 10° SSW
SL-8 Rocket 4.0 03:50:58 10° S 03:57:11 66° E 04:03:24 10° NNE
NOSS 3-4 (A) 4.0 03:59:50 10° NNW 04:06:44 62° NE 04:12:16 19° SE
NOSS 3-4 (C) 4.0 03:59:56 10° NNW 04:06:50 61° NE 04:12:21 19° ESE
Cosmos 1515 Rocket 3.7 04:05:48 10° SSW 04:10:15 79° W 04:14:45 10° N
ERS-1 Rocket 3.7 04:10:03 21° ESE 04:12:47 36° ENE 04:17:22 10° N
Cosmos 1943 Rocket 4.3 04:11:47 10° NNE 04:13:49 12° NE 04:15:51 10° ENE
CZ-4C R/B 4.0 04:15:43 13° E 04:15:43 13° E 04:16:49 10° ENE
ARGOS 3.4 04:10:53 19° SE 04:14:34 54° ENE 04:19:48 10° N
Cosmos 407 Rocket 3.6 04:09:46 10° NNW 04:14:50 58° ENE 04:17:57 23° SE
MetOp-B 4.5 04:11:24 20° SE 04:14:51 48° ENE 04:19:59 10° N
SL-16 R/B 2.6 04:09:54 10° S 04:15:06 39° ESE 04:20:20 10° NE
ATLAS CENTAUR R/B 2.4 04:13:05 10° WSW 04:16:37 43° NW 04:20:20 10° NNE
USA 267 4.2 04:13:33 10° ENE 04:18:18 21° ESE 04:18:21 21° SE
Cosmos 1408 3.2 04:16:40 10° NNW 04:20:16 55° W 04:23:34 12° S
USA 81 4.3 04:15:13 10° N 04:20:23 51° E 04:23:28 23° SSE
Cosmos 2228 Rocket 3.6 04:16:40 10° SSW 04:21:01 60° WNW 04:25:23 10° N
Meteor 2-10 Rocket 3.7 04:18:32 10° S 04:24:12 66° E 04:29:59 10° NNE
Cosmos 1869 3.3 04:23:37 10° S 04:27:38 83° W 04:31:41 10° N
Cosmos 864 Rocket 4.4 04:21:59 10° S 04:28:06 81° E 04:34:16 10° N
Cosmos 1371 Rocket 4.0 04:23:01 10° SSW 04:28:20 86° ESE 04:33:44 10° NNE
H-2A R/B 2.1 04:26:31 27° SE 04:29:07 55° ENE 04:33:57 10° N
Terra 3.5 04:31:28 17° E 04:32:37 18° ENE 04:35:48 10° NNE
USA 245 4.1 04:34:22 20° NE 04:34:22 20° NE 04:35:27 10° NNE
Cosmos 676 Rocket 4.2 04:31:09 10° NNW 04:36:21 56° ENE 04:38:32 33° SE
Cosmos 1441 Rocket 3.1 04:41:16 47° SSE 04:42:03 62° E 04:45:47 10° NNE
OE (NEXTSAT) 4.5 04:38:55 10° W 04:42:29 74° N 04:43:26 45° ENE
Cosmos 2297 3.7 04:40:05 10° NNW 04:45:48 89° WSW 04:48:36 32° SSE
Resurs 01 Rocket 3.8 04:42:59 10° SW 04:46:28 22° W 04:49:58 10° NW
SL-8 R/B 3.7 04:43:06 10° WSW 04:47:55 82° NNW 04:51:44 16° ENE
Cosmos 2056 Rocket 3.6 04:44:17 10° SSW 04:49:43 80° WNW 04:55:08 10° NNE
Cosmos 2369 Rocket 3.6 04:45:22 10° N 04:50:05 26° NE 04:52:10 21° E
Cosmos 1452 Rocket 3.8 04:49:32 38° SE 04:50:33 43° ESE 04:55:30 10° NNE
Cosmos 2344 3.7 04:44:05 10° S 04:51:19 49° ESE 04:59:09 10° NE
Cosmos 405 3.6 04:50:24 10° NNW 04:53:49 51° W 04:54:49 37° SSW
USA 234 4.4 04:48:09 10° ENE 04:53:57 36° NNE 04:59:49 10° NW
Cosmos 2333 Rocket 4.2 04:49:50 10° WSW 04:54:44 29° NW 04:59:39 10° N
Lacrosse 5 3.2 04:50:18 10° NW 04:54:52 32° NNE 04:57:31 20° ENE
MetOp-A 4.3 04:52:58 25° S 04:56:06 69° WSW 05:01:28 10° NNW
SPOT 5 2.9 04:56:16 46° ESE 04:57:09 54° ENE 05:01:29 10° N
Cosmos 2098 Rocket 4.0 04:57:00 10° SSW 05:01:18 41° W 05:04:46 10° N
Cosmos 1000 Rocket 4.5 04:55:10 10° N 05:01:21 67° E 05:03:44 39° SSE
Cosmos 1727 Rocket 4.4 04:59:18 10° NNW 05:05:22 59° W 05:09:41 20° SSW
Cosmos 1140 Rocket 3.4 05:00:58 10° NNW 05:06:11 85° ENE 05:07:33 50° SSE
BREEZE-M DEB (TANK) 3.7 05:04:18 10° WNW 05:06:04 28° N 05:06:04 28° N
Helios 1B rocket 3.1 05:03:39 10° NNE 05:06:53 41° ENE 05:06:53 41° ENE
SL-08 RB Rocket 4.0 05:06:30 38° SSW 05:08:01 62° W 05:12:28 10° NNW
Cosmos 2237 Rocket 3.7 05:02:59 10° WSW 05:08:09 37° NW 05:13:21 10° NNE
Cosmos 1821 Rocket 4.0 05:06:44 38° SSE 05:09:11 63° E 05:15:24 10° NNE
Cosmos 405 Rocket 3.1 05:12:14 43° SW 05:13:16 60° WNW 05:17:11 10° N
ATLAS 5 CENTAUR R/B 3.3 05:09:29 10° NNW 05:14:48 37° NE 05:17:12 27° E
Cosmos 2278 Rocket 4.2 05:11:27 10° NW 05:15:34 21° W 05:19:41 10° SSW
Cosmos 1741 Rocket 4.4 05:10:28 10° N 05:15:38 48° ENE 05:16:28 44° E
Cosmos 1862 4.2 05:12:02 10° NNW 05:15:54 45° W 05:16:53 37° SW
Cosmos 1437 Rocket 3.3 05:12:56 10° N 05:16:12 48° NE 05:16:12 48° NE
Meteor 1-26 Rocket 4.3 05:18:33 51° ESE 05:19:01 52° E 05:24:24 10° NNE
Cosmos 1954 Rocket 4.0 05:14:27 10° NNW 05:19:40 74° WSW 05:20:53 52° S
RESURS DK-1 3.9 05:17:17 10° N 05:20:42 25° NE 05:20:42 25° NE
Cosmos 1633 4.1 05:19:53 10° N 05:21:57 27° NNE 05:21:57 27° NNE
Cosmos 1707 Rocket 3.9 05:23:37 44° SW 05:24:42 60° W 05:29:01 10° N
Cosmos 2123 Rocket 4.1 05:18:53 10° N 05:25:08 59° ENE 05:26:26 50° ESE
SL-19 R/B 4.2 05:24:04 55° SSE 05:25:23 83° ENE 05:31:02 10° NNW
Meteor 1-4 Rocket 4.2 05:26:22 10° N 05:28:15 26° NNE 05:28:15 26° NNE
Helios 1A 3.5 05:31:29 50° WSW 05:31:48 52° W 05:35:55 10° NNW
Meteor 1-20 Rocket 4.2 05:30:48 10° N 05:36:13 59° ENE 05:36:33 58° E
BREEZE-M DEB (TANK) 3.5 05:33:06 10° WNW 05:35:50 31° NW 05:35:50 31° NW
GEOS 3 Rocket 3.5 05:32:02 10° NE 05:37:26 88° SE 05:39:51 34° SW
Cosmos 1535 Rocket 4.4 05:39:06 49° S 05:41:00 89° E 05:47:26 10° N
CARTOSAT-1 3.7 05:42:31 69° N 05:42:31 69° N 05:46:22 10° NNW
Cosmos 1733 Rocket 3.1 05:37:37 10° N 05:41:37 73° NNW 05:41:37 73° NNW
Spot 1 4.4 05:44:19 70° SW 05:44:33 71° WSW 05:49:17 10° NNW
YAOGAN 11 4.4 05:45:35 59° NNE 05:45:35 59° NNE 05:49:13 10° N
Cosmos 1241 Rocket 4.4 05:39:19 10° NW 05:45:38 78° WSW 05:46:46 61° S
CZ-2C R/B 3.3 05:46:03 49° NE 05:46:03 49° NE 05:50:21 10° N
ERS-1 Rocket 4.4 05:50:03 25° SW 05:51:36 29° W 05:56:00 10° NW
Landsat 7 4.1 05:52:00 60° WSW 05:52:06 60° W 05:56:49 10° NNW
Cosmos 1420 Rocket 4.2 05:50:58 49° SW 05:52:17 68° WNW 05:57:38 10° NNE
IGS 5A 4.1 05:55:26 55° NW 05:55:26 55° NW 05:58:51 10° NNW
Cosmos 1943 Rocket 2.4 05:53:24 10° NNW 05:58:52 56° ENE 05:58:56 55° ENE
Meteor 2-17 Rocket 4.3 05:58:20 69° S 05:59:11 90° E 06:05:22 10° N
SL-16 R/B 3.7 05:54:05 10° WSW 05:59:15 35° NW 06:04:27 10° NNE
Cosmos 1605 Rocket 3.9 05:58:57 70° SE 05:59:33 76° E 06:05:58 10° N
SPOT 1/Viking Rocket 4.3 05:59:45 40° WSW 06:00:30 43° W 06:05:29 10° NNW
CZ-4C R/B 2.1 06:00:47 75° WSW 06:01:14 85° NW 06:07:19 10° NE
USA 267 3.1 05:55:26 10° NE 06:02:00 76° SE 06:05:27 31° SW
H-2A R/B 4.0 06:07:08 16° WSW 06:08:51 19° W 06:12:23 10° NW
Terra 2.3 06:10:21 57° WNW 06:10:21 57° WNW 06:14:38 10° NNW
Cosmos 2242 Rocket 4.4 06:11:27 47° NW 06:11:27 47° NW 06:15:14 10° N
Cosmos 1447 Rocket 4.3 06:09:38 10° N 06:15:48 77° E 06:15:53 77° E
Spot 4 4.4 06:20:50 53° NNE 06:20:50 53° NNE 06:24:35 10° N
Meteor 1-11 Rocket 4.3 06:18:35 10° N 06:23:26 47° NE 06:23:26 47° NE
Cosmos 1603 4.1 06:25:19 53° W 06:26:09 59° WNW 06:31:42 10° NNE
Cosmos 1943 3.4 06:29:29 66° NNE 06:29:29 66° NNE 06:34:21 10° NNE
Meteor 1-27 Rocket 4.4 06:35:38 46° ENE 06:35:38 46° ENE 06:40:07 10° NNE
Cosmos 2369 Rocket 2.6 06:28:55 10° NNW 06:33:58 56° W 06:33:58 56° W
USA 234 3.3 06:35:28 64° E 06:36:24 75° NE 06:42:57 10° NW
H-2A R/B 3.9 06:39:04 27° NE 06:39:04 27° NE 06:41:45 10° N
Cosmos 2263 4.4 06:32:26 10° NNW 06:37:18 65° WNW 06:37:18 65° WNW
Lacrosse 5 2.7 06:33:10 10° NW 06:36:42 45° WNW 06:36:42 45° WNW
CZ-2C R/B 2.9 06:39:22 10° NNE 06:43:59 65° N 06:43:59 65° N
SeaSat 1 3.8 06:45:23 31° NE 06:45:23 31° NE 06:49:25 10° N
ALOS 2 4.3 06:56:28 30° NNE 06:56:28 30° NNE 06:58:55 10° N
ATLAS 5 CENTAUR R/B 2.9 06:53:57 10° NW 06:58:45 49° W 06:58:45 49° W
Cosmos 2100 Rocket 4.0 07:01:26 79° N 07:01:26 79° N 07:07:26 10° N
Cosmos 1802 Rocket 4.1 07:03:25 66° NE 07:03:25 66° NE 07:08:49 10° N
Cosmos 2061 Rocket 4.1 07:04:21 71° NE 07:04:21 71° NE 07:10:13 10° N
Mayak 0.9 07:17:58 10° NNE 07:19:41 24° NNE 07:19:41 24° NNE
Cosmos 2173 Rocket 4.5 07:37:24 52° WNW 07:37:24 52° WNW 07:43:19 10° N
Cosmos 1725 Rocket 4.2 07:40:32 68° N 07:40:32 68° N 07:45:52 10° N
Cosmos 1943 Rocket 4.1 07:37:57 10° NW 07:40:27 20° WNW 07:40:27 20° WNW
Lacrosse 4 Rocket 4.2 07:42:13 10° N 07:44:34 14° NE 07:45:34 13° NE
USA 267 4.2 07:38:37 10° NE 07:44:46 45° NNW 07:50:54 10° W
CZ-4C R/B 4.4 07:46:18 10° W 07:50:47 24° NNW 07:55:48 10° NNE
Cosmos 2016 Rocket 4.4 07:52:31 53° NW 07:52:31 53° NW 07:57:56 10° N
ADEOS Rocket 3.2 07:59:49 10° NNE 08:06:19 77° NNW 08:06:19 77° NNW
H-2A R/B 4.5 08:16:10 18° NW 08:16:10 18° NW 08:17:39 10° NW
Cosmos 1980 Rocket 4.5 08:15:11 10° N 08:19:09 19° NE 08:23:08 10° E
COSMOS 2406 3.7 08:21:20 57° NNE 08:21:20 57° NNE 08:25:51 10° NNE
Cosmos 1697 Rocket 4.2 08:16:31 10° N 08:21:30 30° NE 08:23:01 27° E
SeaSat 1 4.3 08:25:09 23° NW 08:25:09 23° NW 08:27:09 10° NW
Cosmos 2082 Rocket 3.7 08:34:17 26° E 08:34:17 26° E 08:37:57 10° NE
Cosmos 2034 Rocket 4.5 08:37:05 50° E 08:37:05 50° E 08:42:57 10° NNE
Resurs 1-4 Rocket 4.3 08:36:40 10° NE 08:39:31 15° E 08:39:50 15° E
CZ-4B R/B 4.4 08:42:26 17° N 08:42:26 17° N 08:43:23 10° N
Cosmos 1656 4.1 08:37:40 10° NNW 08:42:59 59° NE 08:42:59 59° NE
Cosmos 909 Rocket 4.1 08:46:36 10° NNW 08:52:54 73° NE 08:53:28 69° E
Cosmos 967 Rocket 4.5 08:46:36 10° NNW 08:53:06 77° NE 08:53:16 77° ENE
Mayak 1.5 08:55:35 10° NW 08:56:19 11° NW 08:56:19 11° NW
Cosmos 1464 Rocket 3.9 09:03:58 76° NW 09:03:58 76° NW 09:10:03 10° N
Cosmos 1833 Rocket 3.2 09:06:54 52° E 09:06:54 52° E 09:11:49 10° NNE
MOS 1 Rocket 4.1 09:02:54 10° N 09:06:21 50° N 09:06:21 50° N
SL-16 R/B 3.4 09:08:01 32° ESE 09:10:26 46° ENE 09:16:22 10° N
Cosmos 2369 4.0 09:05:20 10° NNW 09:09:52 58° NW 09:09:52 58° NW
Meteor 1-13 Rocket 4.4 09:17:55 63° NW 09:17:55 63° NW 09:23:06 10° N
ARIANE 5 R/B 4.5 09:13:54 10° NE 09:17:43 20° E 09:18:54 19° ESE
Nadezhda 4 Rocket 3.8 09:16:02 10° N 09:22:13 87° W 09:22:20 86° SW
Lacrosse 4 Rocket 3.1 09:19:31 10° NNW 09:21:52 31° NNW 09:21:52 31° NNW
Cosmos 1867 4.0 09:18:35 10° NW 09:22:50 55° NW 09:22:50 55° NW
Cosmos 1025 Rocket 4.1 09:33:11 41° ENE 09:33:11 41° ENE 09:36:33 10° NNE
Cosmos 1634 Rocket 4.3 09:35:03 49° SE 09:36:19 59° E 09:42:28 10° NNE
Lacrosse 5 rocket 2.3 09:41:55 47° NE 09:41:55 47° NE 09:44:56 10° NE
IRS-1D 4.2 09:41:32 10° NNE 09:46:31 45° E 09:47:21 42° SE
CZ-2D R/B 2.4 09:42:37 10° NNE 09:47:56 56° E 09:48:38 52° SE
Meteor 2-4 Rocket 4.4 09:52:49 39° WNW 09:52:49 39° WNW 09:57:33 10° N
Meteor 1-23 Rocket 4.3 09:54:47 61° W 09:55:04 62° WNW 10:00:43 10° N
Cosmos 2026 Rocket 4.1 09:48:40 10° N 09:55:05 75° E 09:57:25 41° SSE
PSLV R/B 4.4 09:56:40 59° NE 09:56:40 59° NE 10:00:20 10° N
Okean 2 4.0 09:57:38 52° N 09:57:38 52° N 10:00:49 10° N
UNK 3.7 09:57:36 74° NNW 09:57:36 74° NNW 10:01:48 10° NNW
Cosmos 1932 4.4 09:59:25 61° SW 10:00:40 83° NW 10:07:06 10° NE
SL-08 R/B 3.3 10:01:23 73° WNW 10:01:23 73° WNW 10:05:59 10° NNW
IRS-P3 Rocket 4.5 09:56:01 10° NNE 10:01:30 85° WNW 10:02:08 71° SSW
ADEOS II 4.3 09:58:54 10° NE 10:02:29 18° E 10:06:01 10° SE
IRS-1C 4.1 09:58:07 10° NNE 10:03:29 77° ESE 10:04:22 62° SSE
Cosmos 1980 Rocket 2.0 09:58:15 10° NNW 10:03:53 83° WSW 10:05:01 59° SSE
Cosmos 1697 Rocket 3.2 10:00:15 10° NW 10:04:42 43° W 10:04:42 43° W
Cosmos 1544 3.9 10:03:03 10° N 10:06:03 49° NE 10:06:03 49° NE
Helios 1A Rocket 4.3 10:03:20 10° NNE 10:07:06 32° E 10:07:54 29° ESE
Cosmos 1607 4.4 10:06:18 42° W 10:08:01 53° NW 10:14:23 10° NNE
ATLAS 3B R/B 3.9 10:05:14 24° SSE 10:08:23 34° ESE 10:14:31 10° NE
Cosmos 44 4.2 10:04:25 10° NNW 10:09:31 53° NE 10:14:46 10° SE
Cosmos 2195 Rocket 4.4 10:10:26 10° NNW 10:16:34 68° W 10:18:01 51° SSW
Cosmos 1763 Rocket 4.3 10:15:14 33° SSE 10:17:00 45° ESE 10:22:03 10° NNE
Cosmos 2082 Rocket 2.6 10:16:07 44° W 10:17:03 48° WNW 10:22:33 10° NNE
COSMOS 2487 3.3 10:18:57 46° N 10:18:57 46° N 10:21:35 10° NNE
SL-16 R/B 3.1 10:12:52 10° NNW 10:18:22 47° ENE 10:23:49 10° SE
Resurs 1-4 Rocket 2.0 10:14:40 10° N 10:19:57 77° WNW 10:20:55 59° SW
AQUA 3.8 10:15:14 10° N 10:19:57 62° WNW 10:20:15 60° W
UNKNOWN OBJECT B 4.2 10:16:40 10° NNE 10:20:08 31° E 10:21:01 28° ESE
CBERS-1 4.3 10:21:00 10° N 10:25:57 51° WNW 10:26:36 47° W
Cosmos 1726 Rocket 3.5 10:23:22 10° N 10:27:42 81° E 10:28:35 56° SSE
Cosmos 1092 Rocket 4.5 10:25:03 10° NNW 10:30:45 39° W 10:31:33 37° WSW
Cosmos 2322 Rocket 2.8 10:27:34 10° NNW 10:33:09 58° ENE 10:38:40 10° SE
H-2A R/B 3.3 10:29:13 10° N 10:33:11 38° WNW 10:33:11 38° WNW
Cosmos 1898 Rocket 3.4 10:28:50 10° NNW 10:34:00 66° WSW 10:35:33 44° S
Cosmos 2208 Rocket 4.1 10:34:49 48° WSW 10:36:01 62° WNW 10:41:15 10° NNE
Iridium 4 Rocket 3.9 10:37:20 35° WNW 10:37:20 35° WNW 10:41:16 10° NNW
Cosmos 1655 Rocket 3.9 10:30:57 10° N 10:37:21 81° W 10:41:19 25° S
NPP 4.3 10:32:32 10° N 10:37:31 39° WNW 10:38:39 35° W
Meteor 1-22 Rocket 4.2 10:32:47 10° NNW 10:38:48 82° W 10:42:10 26° S
SAR-Lupe-2 4.3 10:43:02 38° NW 10:43:02 38° NW 10:45:37 10° NNW
Cosmos 1937 Rocket 3.3 10:37:21 10° NNW 10:42:34 77° WSW 10:45:54 22° S
Cosmos 44 Rocket 3.7 10:38:05 10° NNW 10:43:12 67° NE 10:48:22 10° SE
Cosmos 1842 3.6 10:42:12 39° SSE 10:43:25 61° E 10:47:20 10° NNE
Okean 1-7 Rocket 3.9 10:45:40 46° WSW 10:46:13 49° WNW 10:50:38 10° N
Cosmos 1428 Rocket 4.5 10:41:37 10° NNW 10:47:41 59° W 10:50:34 31° SSW
Cosmos 858 Rocket 4.4 10:42:40 10° NNW 10:47:48 61° WSW 10:50:13 30° S
Cosmos 2228 2.8 10:44:40 10° N 10:48:57 79° W 10:50:23 41° S
Cosmos 1833 Rocket 4.0 10:48:36 22° W 10:50:34 27° NW 10:55:19 10° N
Cosmos 2058 Rocket 2.9 10:47:29 10° N 10:51:56 80° W 10:53:59 32° S
SL-16 R/B 3.2 10:53:06 31° WSW 10:54:10 33° W 10:59:46 10° NNW
Cosmos 990 Rocket 3.9 10:50:48 10° NNW 10:55:52 59° WSW 10:59:05 22° S
Cosmos 1606 Rocket 4.0 10:52:13 10° NNW 10:56:16 40° W 10:56:31 39° WSW
Cosmos 468 Rocket 4.3 10:54:30 36° WSW 10:56:21 55° WNW 11:01:36 10° NNE
Cosmos 1805 3.1 10:53:10 10° N 10:57:05 80° W 10:58:34 37° S
ARIANE 5 R/B 2.7 10:52:03 10° N 10:57:11 57° WNW 10:59:15 34° SW
ATLAS CENTAUR R/B 3.4 10:55:28 10° NNW 10:59:24 32° NE 11:03:32 10° ESE
Spot 4 Rocket 4.3 10:55:29 10° N 11:00:29 51° WNW 11:02:29 33° SW
Cosmos 1626 Rocket 4.2 11:00:46 16° SSE 11:04:01 53° E 11:08:14 10° NNE
Cosmos 1953 3.3 11:00:42 10° N 11:04:41 49° ENE 11:08:37 10° SSE
Cosmos 1766 3.6 11:02:16 10° NNW 11:05:55 40° W 11:06:15 39° WSW
SJ 16-02 2.4 11:02:05 10° N 11:06:23 48° ENE 11:10:39 10° SE
Cosmos 1814 Rocket 3.9 11:04:35 31° SW 11:07:02 72° WNW 11:12:14 10° NNE
Cosmos 1892 Rocket 4.0 11:10:22 33° WSW 11:11:44 43° WNW 11:15:57 10° N
USA 238 DEB 3.7 11:09:23 25° SW 11:13:45 89° NW 11:20:47 10° NE
USA 238 3.7 11:09:28 24° SW 11:13:52 90° NW 11:20:54 10° NE
Cosmos 2150 Rocket 4.2 11:11:02 10° NNW 11:16:23 55° WSW 11:21:40 10° S
Gblst 52 Del rocket 4.4 11:13:41 10° WNW 11:19:34 86° NNE 11:26:16 10° ESE
Lacrosse 5 rocket 3.3 11:17:34 12° WNW 11:20:32 21° NNW 11:23:41 10° NNE
Cosmos 2298 Rocket 4.4 11:18:59 10° NW 11:23:57 41° WSW 11:28:54 10° S
CZ-2D R/B 3.6 11:23:29 10° NNW 11:27:35 23° WNW 11:29:58 17° W
Cosmos 1733 3.1 11:24:54 10° NNW 11:28:47 78° W 11:32:39 10° S
Cosmos 1758 3.3 11:27:52 10° NNW 11:31:48 58° W 11:35:41 10° S
Cosmos 292 Rocket 3.8 11:30:04 19° SSW 11:33:27 70° WNW 11:38:16 10° NNE
Cosmos 841 Rocket 3.6 11:30:03 21° SW 11:33:28 57° WNW 11:38:37 10° NNE
BREEZE-M R/B 3.0 11:31:42 25° WSW 11:33:43 84° NNW 11:40:04 10° ENE
Helios 1A Rocket 4.3 11:38:47 10° NNW 11:42:10 24° WNW 11:44:11 17° WSW
ADEOS 4.2 11:37:35 10° N 11:42:25 40° WNW 11:46:10 16° SW
ADEOS II 2.2 11:37:25 10° N 11:42:37 63° WNW 11:47:35 11° SSW
Cosmos 540 Rocket 3.4 11:40:28 13° SSW 11:45:03 77° WNW 11:50:15 10° NNE
Cosmos 2360 Rocket 2.2 11:39:44 10° NNW 11:45:24 89° WSW 11:51:02 10° SSE
NOSS 3-3 (A) 4.5 11:38:57 10° NW 11:46:27 83° SW 11:54:36 10° SSE
NOSS 3-3 (C) 4.5 11:39:03 10° NW 11:46:34 83° SW 11:54:42 10° SSE
Cosmos 1980 Rocket 4.0 11:45:00 10° WNW 11:46:42 12° W 11:46:42 12° W
BREEZE-M DEB (TANK) 3.9 11:35:04 10° WNW 11:47:30 45° SW 11:51:14 10° SSE
Cosmos 44 4.4 11:46:11 10° WNW 11:50:32 26° WSW 11:54:57 10° SSW
NOSS 3-2 (C) 3.6 11:45:07 11° SSW 11:50:52 74° SE 11:57:28 10° NE
Cosmos 1825 Rocket 4.1 11:49:56 10° S 11:54:10 58° E 11:58:26 10° NNE
UNKNOWN OBJECT B 4.3 11:51:32 10° NNW 11:54:26 21° WNW 11:56:29 14° WSW
Okean O Rocket 3.1 11:50:46 10° NNE 11:54:51 38° E 11:58:53 10° SSE
